Starlink 35130

operational
NORAD ID: 65740 Int'l Des: 2025-216 Owner: SPXS Country: US Constellation: starlink
NOTLE

About Starlink 35130

Description loading...

Live Position

Loading 3D Globe...

Upcoming Passes

Altitude History

Altitude vs Time

uPlot chart will show altitude changes over time

Two-Line Element Set

1 65740U 25216G 25338.51518687 .00030383 00000-0 10327-2 0 9992
2 65740 53.1606 54.8493 0000990 61.4847 298.6253 15.30232069 12027
Epoch: Dec 4, 2025 • Age: 37 hours

Current Status

Altitude 477.7 km
Velocity 7.63 km/s
Sub-Earth Point 38.01°N, 102.35°E
Launch Date Sep 25, 2025
Age 0.1 years
Type internet

Technical Details

Classification Payload
Mass 575.00 kg
Dry Mass 530.00 kg
Total Mass 575.00 kg
Length 0.30 m
Diameter 4.10 m
Span 29.00 m
Shape Box + pan
Manufacturer SPXS
Bus Type Starlink V2MO
Phase Status In Orbit
Owner/State SPXS/US

Large Constellations

Loading constellations...